Regional Weather Roundup
Issued by NWS Jackson, KY

Home | Current Version | Previous Version | Graphics & Text | Print | Product List | Glossary On
Versions: 1 2 3 4 5 6 7 8 9 10 11 12 13 14 15 16 17 18 19 20 21 22 23 24 25 26 27 28 29 30 31 32 33 34 35 36 37 38 39 40 41 42 43 44 45 46 47 48 49 50
000
ASUS43 KJKL 190210
RWRJKL

EAST KENTUCKY HOURLY WEATHER ROUNDUP
NATIONAL WEATHER SERVICE JACKSON KY
900 PM EST SAT FEB 18 2017

NOTE: "FAIR" INDICATES FEW OR NO CLOUDS BELOW 12,000 FEET WITH
NO SIGNIFICANT WEATHER AND/OR OBSTRUCTIONS TO VISIBILITY.

* THESE REPORTS ARE NOT UNDER NWS QUALITY CONTROL AND MAY NOT
  REPORT WEATHER SUCH AS PRECIPITATION AND FOG.

KYZ079-080-083-085-087-088-110-112-115-119-120-190300
...EASTERN KENTUCKY...

CITY           SKY/WX    TMP DP  RH WIND       PRES   REMARKS
JACKSON        CLOUDY    47  44  90 CALM      29.93R
LONDON         CLOUDY    48  46  93 CALM      29.94R FOG
SOMERSET*      CLOUDY    46  45  93 CALM      29.96R
MONTICELLO*    MOCLDY    47  45  93 W12       29.97R
WILLIAMSBURG*  CLOUDY    48  48 100 SW5       29.95R
MIDDLESBORO*   CLOUDY    48  48 100 CALM      29.96R FOG
HARLAN APT*    CLOUDY    46  45  93 CALM      29.95R
PIKE CO APT*   CLOUDY    49  39  68 NW5       29.92S
BIG SANDY APT* CLOUDY    49  43  80 CALM      29.93R
MOREHEAD APT*  CLOUDY    48  41  76 S6        29.93S
ASHLAND*       CLOUDY    48  45  87 CALM      29.90S
$$

KYZ035-036-041-042-044-050-067-078-099-190300
...CENTRAL KENTUCKY...

CITY           SKY/WX    TMP DP  RH WIND       PRES   REMARKS
MT STERLING*   CLOUDY    46  43  87 SW5       29.93S
FLEMING/MASON* DRIZZLE   46  44  96 SW7       29.92R
DANVILLE*      CLOUDY    46  43  87 SW3       29.94R
LEXINGTON      CLOUDY    49  43  80 SW7       29.91S
FRANKFORT      LGT RAIN  50  46  86 SW7       29.90R FOG
LOUISVILLE     LGT RAIN  51  48  89 SW3       29.92R
LEBANON*         N/A     48  45  87 S7        29.93R
GLASGOW*       CLOUDY    49  45  84 SW3       29.94S
BOWLING GREEN  CLOUDY    52  47  83 SW3       29.95S
$$

KYZ091>093-OHZ055-061-077-WVZ005-015-034-035-042-190300
...SOUTHERN OHIO/WEST VIRGINIA...

CITY           SKY/WX    TMP DP  RH WIND       PRES   REMARKS
COVINGTON      CLOUDY    50  46  86 SW9       29.88R
COLUMBUS       CLOUDY    54  43  66 S10       29.85R
DAYTON         PTCLDY    51  42  71 SW13      29.84R
WILMINGTON     CLOUDY    49  44  83 SW15      29.86R
HUNTINGTON     LGT RAIN  48  43  82 SW7       29.91R
CHARLESTON     CLOUDY    53  38  56 W7        29.90R
PINEVILLE*     CLOUDY    47  37  66 MISG      29.95R
BECKLEY        CLOUDY    47  32  56 CALM      29.89S
BLUEFIELD      CLOUDY    49  30  48 CALM      29.90S
LOGAN CO APT*  DRIZZLE   54  36  50 CALM      29.90R
$$

VAZ002-007-008-TNZ017-027-036-066-071-190300
...SOUTHWEST VIRGINIA/EAST TENNESSEE...

CITY           SKY/WX    TMP DP  RH WIND       PRES   REMARKS
WISE*          DRIZZLE   46  36  66 W7        29.95R
JONESVILLE*    CLOUDY    48  46  93 CALM      29.98R
ABINGDON*      CLOUDY    49  37  65 W6        29.93R
BRISTOL        CLOUDY    50  39  66 W7        29.94R
MORRISTOWN*    CLOUDY    50  46  87 W7        29.95R
SEVIERVILLE*   CLOUDY    48  45  87 W3        29.97R
KNOXVILLE      CLOUDY    50  47  89 S6        29.97R
LAFOLLETTE*    CLOUDY    48  48 100 CALM      29.98S FOG
OAK RIDGE      CLOUDY    49  47  93 CALM      29.98S FOG
CROSSVILLE     CLOUDY    48  46  93 CALM      29.96S
NASHVILLE      CLOUDY    54  46  74 S3        29.95R
$$

...KEY TO REMARKS...
VSB - VISIBILITY IN MILES
WCI - WIND CHILL INDEX
HX  - HEAT INDEX

$$



USA.gov is the U.S. government's official web portal to all federal, state and local government web resources and services.